Wind_Speed
34 35 37 39 37 33 30 26 23 16 9 14 24 28 32 36 37 36 33 29 28 30 29 27 26 24 22 20 17 13 11 9 8 9 12 13 16 17 17 17 17 15 13 15 17 16 16 16 17 17 17 17 17 16 15 14 12 12 12 11 10 10 10 9 8 8 8 7 7 7 9 10 10 11 11 11 10 11 12 9 10 14 15 13 13 14
35 38 40 40 37 32 29 26 22 19 14 14 19 23 27 32 35 35 34 31 30 31 29 27 26 25 24 22 19 16 14 12 8 7 9 10 13 15 16 16 16 14 15 17 18 18 17 17 17 17 17 17 16 15 14 12 12 12 12 11 10 11 10 9 9 9 9 8 8 8 9 9 8 8 8 8 8 8 8 7 8 10 11 11 11 12
37 41 42 38 35 32 28 28 25 21 19 17 17 19 21 24 28 31 33 29 28 31 31 28 28 27 26 25 22 20 18 14 10 8 7 8 11 13 13 13 14 16 18 19 18 17 17 16 17 17 16 16 14 14 14 13 13 13 12 12 12 11 10 10 10 9 8 8 8 7 6 5 3 3 3 4 4 4 4 4 5 5 6 7 8 9
36 39 41 37 34 33 30 30 27 24 23 21 19 19 18 18 18 23 31 31 27 30 32 29 28 29 27 26 26 23 20 17 13 11 10 10 11 9 9 10 13 16 17 18 17 16 16 16 16 16 14 14 14 15 15 14 14 13 12 12 12 11 10 10 9 8 8 8 6 4 3 1 2 2 2 2 2 3 4 4 4 4 4 5 5 6
35 35 38 37 34 33 32 31 29 26 26 24 23 22 19 18 15 14 20 26 26 27 32 30 24 28 31 28 28 26 22 21 19 16 14 14 12 10 10 12 14 15 16 16 15 14 14 13 13 13 13 14 15 15 14 14 12 11 11 11 11 11 10 10 9 9 8 7 6 4 4 4 5 6 6 6 7 7 8 9 9 9 9 8 7 7
36 33 35 37 36 34 33 33 31 27 27 26 26 25 21 17 15 11 11 16 22 26 33 30 17 20 31 32 30 28 26 25 23 21 19 16 15 15 15 15 14 15 16 15 14 13 12 12 12 13 14 15 14 14 14 13 12 12 12 11 11 11 10 10 10 10 10 8 6 6 6 6 7 8 9 10 11 12 12 13 14 13 13 13 13 12
36 34 32 34 36 35 34 35 33 30 27 27 29 27 21 18 17 14 12 14 19 23 30 32 22 16 25 31 31 30 29 28 25 25 23 19 18 19 19 17 15 15 15 15 15 15 14 13 13 13 13 13 12 12 13 13 12 12 12 11 11 11 11 11 12 12 10 9 8 7 7 7 8 8 9 11 12 12 13 13 13 13 14 14 15 16
36 36 33 32 35 37 37 37 36 32 28 28 31 27 21 19 18 17 17 14 17 20 22 30 32 21 23 31 30 28 30 29 29 29 27 24 21 21 21 20 18 16 14 14 15 16 15 13 12 12 12 11 10 12 13 13 11 11 11 11 11 11 11 12 13 12 11 10 9 8 7 6 6 7 8 9 10 10 10 11 12 13 15 16 17 17
32 36 37 34 34 37 39 39 37 33 31 32 30 26 23 21 18 18 17 13 16 20 18 26 32 19 23 37 32 26 30 30 31 30 29 28 25 22 21 21 21 18 16 16 16 15 14 12 11 12 12 11 12 13 13 11 11 11 11 11 12 12 12 12 12 12 12 11 10 8 7 6 5 5 6 6 6 7 8 10 11 13 15 16 17 18
25 30 36 36 35 38 40 39 37 34 32 32 27 24 24 21 19 16 14 15 17 17 17 25 30 18 19 37 36 28 31 32 32 30 27 27 27 25 23 22 22 20 19 19 18 17 15 13 12 12 14 14 14 14 13 13 13 12 13 13 12 12 12 13 12 12 12 12 11 9 7 6 5 4 4 4 4 5 6 8 10 12 14 16 18 19
23 21 28 36 37 37 38 37 38 36 32 30 24 23 24 21 20 15 13 18 14 11 19 28 34 26 15 28 38 34 33 33 31 27 24 24 25 23 22 21 22 22 21 21 20 18 17 15 15 15 16 16 16 16 15 15 15 14 14 14 13 13 13 13 13 13 12 12 12 10 8 7 5 4 4 3 3 3 3 6 8 10 12 15 17 19
27 21 22 31 36 36 35 36 37 36 34 30 23 22 21 15 14 10 9 15 8 6 21 29 34 31 19 26 37 35 34 34 32 29 24 22 19 17 16 16 19 22 21 21 21 20 19 19 19 18 18 18 18 18 17 16 15 15 15 14 15 15 14 14 13 13 13 13 13 11 8 7 5 4 4 3 3 1 2 5 7 9 11 13 16 19
29 30 25 24 29 35 36 34 34 34 34 30 24 23 16 6 6 5 4 7 6 9 19 25 28 28 28 37 40 35 34 32 32 31 25 21 19 17 15 12 14 19 22 22 21 21 22 22 21 20 20 20 21 20 18 17 16 16 15 15 16 16 15 15 15 14 14 14 14 12 10 7 6 5 4 4 4 4 5 6 7 9 11 13 16 18
24 27 31 29 25 31 38 38 35 34 35 31 28 26 16 6 2 4 2 0 4 12 19 23 22 18 26 36 34 31 28 24 26 28 26 24 24 23 21 17 15 17 20 21 21 22 23 24 23 22 21 21 22 20 19 18 17 16 16 15 16 16 17 17 16 16 15 15 15 14 12 10 9 7 6 6 6 6 7 7 9 11 13 15 17 19
21 18 30 37 33 32 37 40 38 35 36 34 31 30 26 18 8 4 4 3 6 9 11 16 13 9 18 25 22 20 19 18 22 27 29 32 31 29 27 24 21 19 19 21 21 21 21 23 24 24 23 22 22 21 21 20 19 17 16 15 15 16 17 17 17 17 16 17 17 16 15 13 12 11 10 9 9 8 9 10 11 12 15 17 18 20
24 23 27 32 36 37 37 38 38 33 32 33 32 31 32 31 23 12 8 10 11 6 5 11 10 12 22 27 22 18 17 19 23 27 30 32 33 32 28 24 23 21 20 21 21 20 20 21 24 25 25 23 22 21 21 21 20 19 17 16 15 15 17 18 18 18 18 18 19 18 17 16 16 15 14 13 11 11 12 13 13 15 17 18 19 20
21 26 29 26 31 39 38 36 37 36 32 28 29 33 32 30 28 20 12 12 11 4 5 11 11 16 24 25 25 24 20 20 23 26 27 27 29 30 26 22 22 22 22 23 22 19 18 20 22 24 24 23 22 21 20 19 19 18 17 16 15 16 17 18 17 18 19 20 20 20 19 19 19 19 18 16 15 15 16 16 16 17 19 19 20 20
22 23 27 25 27 36 39 36 35 38 37 31 30 33 28 22 24 21 11 4 4 3 5 12 17 19 19 17 20 24 24 22 23 25 25 25 27 27 24 23 24 24 22 23 23 20 19 20 21 22 22 21 21 19 17 17 16 16 16 15 15 16 16 16 17 18 20 20 21 21 21 22 23 22 21 20 19 19 19 18 18 19 20 20 20 20
27 24 24 24 23 27 35 38 37 36 36 36 35 32 24 18 19 21 12 3 3 2 2 10 17 20 22 20 17 18 22 24 22 22 23 25 25 22 21 23 26 26 24 24 24 22 21 21 20 20 20 19 19 17 16 16 17 17 17 16 16 16 16 17 18 19 20 22 22 23 24 25 25 25 24 23 22 22 22 20 19 20 21 21 20 21
29 25 23 22 21 22 29 37 42 42 36 34 34 30 26 22 19 21 19 12 8 4 2 5 8 13 23 24 17 15 19 20 18 16 17 20 18 15 16 21 25 26 27 27 25 22 21 19 18 18 16 16 16 14 14 15 16 16 16 17 18 17 18 20 20 20 20 22 23 24 27 28 29 29 28 27 25 24 23 22 21 21 21 21 21 21
35 29 25 22 19 22 30 36 43 47 42 37 36 32 29 27 22 18 19 19 13 5 4 4 3 11 20 20 16 16 17 16 15 13 12 13 13 12 13 18 23 25 26 26 24 21 19 16 16 16 14 14 14 14 16 17 16 16 16 18 18 19 20 21 21 21 21 22 23 24 28 31 32 32 32 30 29 27 26 24 22 22 22 21 21 21
38 34 31 28 24 26 30 32 35 42 43 40 39 38 36 33 26 15 11 18 19 11 7 5 4 11 17 16 16 17 18 19 18 14 13 12 11 11 12 14 19 24 24 23 22 19 18 16 15 15 14 15 16 16 16 15 15 16 16 16 17 18 20 21 21 22 23 24 25 26 29 32 33 34 35 34 32 31 30 27 24 24 23 22 21 20
38 37 34 33 34 35 31 26 25 30 37 39 38 39 39 37 35 25 12 14 19 17 12 8 5 10 14 15 16 16 17 19 17 14 13 12 12 14 13 12 17 23 22 21 20 18 17 16 14 15 16 17 17 17 17 17 17 17 17 16 17 18 18 19 21 23 26 28 29 30 31 32 34 35 37 38 37 36 36 33 29 27 24 22 21 20
37 38 35 33 36 40 38 34 30 25 28 32 34 36 38 38 40 36 27 24 22 20 17 9 4 11 16 18 20 20 19 19 17 16 16 15 15 16 16 16 19 21 21 20 20 19 18 17 16 18 19 19 19 19 20 20 20 20 19 19 19 18 17 18 21 25 28 30 31 32 34 35 36 37 39 41 41 42 43 40 35 31 27 24 23 22
34 36 35 25 18 23 28 31 34 35 33 32 31 32 33 35 36 35 34 33 26 24 25 15 6 12 18 18 21 24 25 26 26 23 21 20 19 18 19 19 20 21 20 19 18 18 18 17 17 19 19 19 19 19 20 20 20 20 20 20 20 18 17 18 22 26 29 31 33 34 35 38 40 41 42 42 43 44 47 45 41 36 32 28 26 25
34 39 39 26 13 11 14 18 28 38 39 36 33 31 29 29 30 30 31 29 24 25 30 23 14 15 19 19 20 22 24 27 28 28 26 23 20 19 21 22 21 19 19 18 17 16 15 15 17 19 19 18 18 17 18 18 17 18 18 19 18 17 17 19 22 26 29 31 34 35 37 40 43 45 46 45 45 46 47 48 46 42 36 33 31 29
35 39 41 39 33 30 30 31 34 34 32 34 36 34 31 27 26 27 29 30 30 28 30 31 28 24 25 25 24 21 20 20 22 23 24 23 21 20 22 23 21 20 19 18 17 15 14 16 18 19 18 16 16 15 15 14 14 15 15 15 14 14 16 18 21 25 27 28 30 32 35 39 42 46 49 50 48 47 49 50 48 45 40 37 35 32
32 35 37 42 43 44 43 41 39 36 32 31 32 33 33 30 28 29 30 33 35 29 26 33 35 30 30 32 27 21 18 17 18 19 19 20 19 19 22 24 23 22 20 19 18 16 16 17 18 19 17 15 14 13 13 12 13 13 13 13 13 15 17 19 21 24 25 26 27 28 31 35 39 45 51 54 52 51 52 50 48 46 43 39 36 33
29 31 34 38 41 43 44 42 41 42 40 35 32 28 26 26 27 31 32 34 36 33 31 36 37 33 35 35 28 21 16 14 14 15 16 17 18 19 21 23 24 24 22 21 20 17 17 19 20 18 16 14 13 13 12 12 12 13 13 14 15 18 20 21 23 24 25 27 27 27 30 32 35 42 50 56 56 54 53 51 49 47 42 36 33 32
25 30 31 34 38 41 42 42 43 44 44 42 40 34 28 26 25 26 27 28 33 36 37 39 40 40 38 34 28 23 19 16 14 14 16 16 17 19 19 20 24 25 24 23 20 16 17 20 21 18 16 14 13 13 14 15 15 16 16 17 19 22 23 23 25 26 27 29 29 30 32 34 36 41 47 54 56 53 50 49 49 48 39 32 31 32
15 26 29 30 34 38 39 40 41 43 43 44 45 44 41 38 36 33 30 28 31 35 35 37 41 43 40 34 30 26 25 24 21 18 18 17 18 19 19 20 23 26 26 24 20 16 18 22 23 21 18 15 13 12 13 14 15 16 17 19 21 23 25 26 27 29 31 31 32 33 35 36 38 41 45 51 54 53 46 39 39 40 35 29 31 33
8 15 22 23 26 34 39 37 36 39 41 42 46 46 45 44 44 42 39 35 34 34 35 38 43 44 41 37 34 32 30 28 23 20 20 19 19 21 21 22 25 26 26 23 18 17 19 22 25 24 20 17 14 13 14 15 16 18 19 21 23 25 27 29 30 32 33 33 34 35 36 36 38 41 43 48 53 52 40 28 26 27 25 23 25 28
11 11 12 13 17 28 36 36 37 34 27 30 40 42 40 43 44 43 42 40 36 33 35 38 39 40 40 40 38 36 33 29 25 23 23 21 21 23 25 27 27 26 23 19 16 17 19 21 24 25 22 19 17 17 18 19 20 22 23 25 27 28 30 31 33 33 33 33 34 35 36 36 37 40 42 45 52 50 34 22 21 20 17 19 20 21
17 17 16 14 14 20 27 32 33 23 14 22 36 38 35 37 40 41 42 41 38 36 35 34 35 38 40 41 40 37 34 31 28 25 25 24 23 25 28 30 28 24 20 18 18 19 19 20 23 23 22 20 19 20 21 21 23 23 23 24 23 23 24 25 27 27 27 28 30 31 32 32 34 38 38 41 48 46 29 18 19 18 17 21 21 20
19 19 20 19 17 18 20 22 17 10 15 30 38 36 34 34 34 36 38 39 39 38 35 33 35 38 39 38 36 35 33 31 29 27 26 26 27 29 30 30 28 24 20 19 20 21 22 23 24 24 22 22 21 21 21 22 22 21 20 19 17 17 19 20 21 22 23 24 24 25 26 28 30 33 34 38 44 40 24 15 17 18 19 22 21 19
19 18 19 19 18 15 13 15 9 7 18 28 29 29 32 31 28 29 32 34 35 34 33 34 35 36 35 31 29 29 29 28 29 29 29 30 31 31 29 28 26 23 20 20 21 22 24 25 24 23 21 20 20 21 22 21 20 19 17 16 16 17 19 20 21 22 22 21 20 20 22 25 28 30 29 31 32 28 20 15 17 18 19 21 20 17
17 17 15 15 15 13 12 13 12 8 11 15 18 21 23 22 23 25 27 28 30 31 32 31 30 29 28 26 24 25 26 27 29 31 33 33 32 31 28 26 24 22 22 23 24 25 24 24 23 21 20 20 21 22 21 18 17 16 16 17 19 20 21 22 22 22 22 21 20 20 21 23 26 27 25 23 19 17 15 13 16 19 19 19 18 17
17 17 13 13 14 14 13 9 8 7 7 14 18 19 20 22 22 24 24 22 23 25 25 24 23 22 21 19 19 19 21 23 25 28 31 32 31 30 29 27 26 25 25 26 25 24 23 21 21 20 19 20 21 20 18 17 16 16 17 19 21 22 22 22 22 23 24 23 22 22 21 21 22 22 21 19 14 12 11 11 15 18 19 19 18 18
21 20 18 16 16 14 15 10 7 6 10 19 24 23 23 23 25 25 22 21 22 21 18 18 18 16 15 14 12 13 15 18 21 23 27 30 31 31 30 29 28 26 26 25 23 22 21 19 18 18 18 18 18 17 17 16 17 18 20 22 23 23 24 25 25 24 24 23 22 22 20 19 20 19 17 15 13 11 10 13 16 17 18 19 18 18
26 24 22 18 16 12 15 14 7 7 15 25 26 24 24 26 27 24 17 18 22 19 16 17 16 13 13 13 11 9 9 13 18 22 26 30 32 32 30 29 27 25 24 23 21 19 18 17 17 17 17 16 16 16 16 17 19 21 22 23 24 25 26 27 26 23 21 21 21 19 18 18 20 20 16 13 13 12 12 15 15 16 17 18 17 18
25 23 21 18 16 12 11 13 8 9 18 25 24 23 26 27 25 21 17 18 22 19 15 14 12 9 8 8 10 9 8 10 16 21 26 28 28 28 28 26 24 23 22 21 20 18 17 17 18 18 16 16 16 17 18 19 21 22 23 24 26 27 28 27 25 21 19 18 18 17 17 17 19 19 16 14 14 14 16 17 16 17 17 17 17 18
20 21 19 15 14 11 7 10 10 12 16 18 19 23 26 25 21 20 20 20 22 20 17 15 14 12 11 9 10 10 12 15 17 21 24 25 24 25 26 25 24 25 24 23 21 19 18 17 17 17 17 18 19 19 19 20 21 22 24 25 27 28 28 26 23 20 17 16 16 16 16 18 19 18 17 17 18 18 20 20 20 20 19 17 18 19
14 16 17 14 10 9 5 8 9 9 10 10 12 18 21 20 18 20 21 21 21 21 18 16 14 12 12 14 15 15 18 22 23 23 25 27 27 28 28 28 27 26 25 23 21 19 18 17 17 18 18 18 19 19 20 21 22 23 25 26 27 28 28 26 23 20 17 15 15 16 17 19 21 20 20 21 22 21 21 22 23 22 20 19 20 21
13 12 16 16 8 7 4 2 7 9 9 8 8 9 13 14 14 19 22 23 25 24 22 21 20 18 19 20 21 23 26 28 29 27 27 28 28 26 26 26 25 24 23 21 19 18 18 18 18 18 18 19 21 22 23 25 25 26 26 27 27 28 28 26 23 20 16 14 15 16 18 21 22 23 23 24 23 21 20 21 22 21 20 19 19 20
25 21 20 21 17 9 8 2 8 12 11 9 6 4 7 9 11 17 21 25 28 28 25 25 26 26 26 25 25 28 29 28 28 27 25 25 24 22 22 22 22 21 20 19 18 17 17 17 18 19 21 22 23 25 26 27 28 27 26 26 27 27 26 24 21 18 15 14 15 17 19 21 23 24 24 24 21 18 18 21 23 21 20 18 16 17
32 31 27 26 24 17 7 3 9 9 10 13 12 8 7 10 14 17 20 24 28 27 25 26 28 27 26 25 25 27 27 26 26 26 24 23 22 20 18 16 16 16 16 16 17 18 19 21 22 22 23 23 25 26 28 29 29 26 25 25 25 24 22 20 17 15 13 13 15 17 19 21 23 24 24 23 21 17 16 19 21 20 19 18 16 17
29 30 29 28 28 24 15 7 8 10 12 15 14 13 11 12 15 17 17 17 20 22 23 24 23 22 22 21 21 22 22 22 22 22 22 21 19 17 15 15 16 17 18 20 22 24 27 27 26 24 24 25 26 28 30 30 28 25 24 23 22 20 18 15 12 12 12 14 16 17 19 22 24 24 25 24 22 18 16 18 20 19 19 17 17 20
21 23 26 27 27 27 22 15 10 13 18 17 15 14 13 11 14 16 15 13 15 17 17 17 18 19 20 18 17 16 17 18 19 18 19 19 18 17 18 19 19 20 21 22 24 26 27 28 27 27 27 28 29 30 31 29 26 24 22 21 19 18 16 13 10 10 13 15 17 18 20 23 25 26 26 25 22 20 20 21 19 18 17 17 19 23
20 20 22 25 27 27 28 26 23 20 22 22 20 20 17 16 16 17 16 16 18 18 17 18 20 20 19 19 17 15 13 15 17 17 18 19 21 24 26 26 25 23 21 21 23 25 26 27 28 29 30 31 32 32 31 28 24 22 20 18 16 14 13 11 9 10 13 16 18 19 21 23 24 25 26 24 22 21 22 21 18 16 17 18 20 22
19 18 19 27 32 33 32 34 34 31 26 21 19 21 23 22 20 18 17 17 17 17 16 18 18 16 15 16 16 12 12 14 17 19 21 24 26 28 29 28 27 26 24 23 24 25 26 27 28 30 30 30 30 30 27 24 21 19 16 13 11 10 10 10 9 10 12 14 15 17 20 22 23 24 24 23 22 22 22 20 19 18 18 18 19 20
16 19 23 29 32 32 33 35 34 33 31 28 26 24 23 22 21 21 22 22 22 21 19 18 18 18 17 18 17 16 18 19 20 21 22 23 24 25 26 26 26 26 27 26 26 25 26 27 28 29 29 29 28 25 22 19 16 14 11 9 9 8 8 8 8 9 10 11 12 14 16 17 18 22 23 23 23 22 20 19 19 18 17 17 17 18
Wind_Direction
210 213 215 214 213 211 208 209 211 205 196 193 197 202 205 206 209 210 208 208 210 215 221 226 232 241 246 253 261 261 260 257 244 237 231 224 221 220 221 222 223 226 220 215 214 211 209 208 205 203 202 203 206 210 214 217 219 220 222 224 225 223 222 224 229 235 237 242 249 255 257 253 251 252 254 255 252 253 263 265 258 267 277 278 276 274
211 216 218 215 213 213 209 208 210 210 204 193 195 204 211 216 220 216 209 210 213 218 224 228 232 240 244 251 258 254 255 267 280 280 260 243 231 223 221 221 222 220 215 215 216 213 210 207 208 206 206 208 210 212 216 219 218 218 220 221 222 224 222 220 224 230 233 239 242 242 245 247 251 259 263 265 267 269 275 276 267 271 281 285 287 286
215 218 217 214 213 213 209 209 212 216 216 208 202 208 217 225 230 228 222 218 216 220 225 230 235 239 241 246 252 254 259 271 286 288 271 252 240 234 228 221 218 215 214 217 218 216 213 209 212 212 210 211 212 212 211 212 214 216 219 218 221 225 219 215 219 224 228 230 229 226 231 243 252 270 284 290 293 299 308 309 302 300 299 299 300 297
216 219 216 213 213 211 208 208 213 219 221 221 218 217 221 225 232 235 231 228 223 222 225 230 236 239 240 243 246 250 256 257 261 261 243 233 234 237 243 238 227 220 218 222 222 218 215 212 213 210 206 208 210 210 207 206 210 213 214 215 219 220 213 209 210 211 211 206 200 193 186 162 98 80 61 46 36 22 21 21 14 5 356 347 333 325
218 219 215 213 214 211 208 208 213 219 221 224 225 225 224 226 235 240 233 232 230 227 229 230 235 241 241 245 247 247 248 245 245 244 232 227 225 217 226 231 226 224 224 226 227 223 218 213 212 207 202 205 206 207 206 205 207 209 208 211 213 209 202 197 193 187 184 174 159 144 124 104 93 88 84 78 72 67 62 59 56 52 47 39 27 10
219 219 216 214 213 211 210 210 213 217 221 226 227 228 227 227 238 242 227 223 220 224 231 228 229 246 243 245 251 248 245 246 245 243 236 228 224 219 221 221 217 218 220 221 222 224 222 216 213 208 203 203 201 201 204 204 203 204 205 204 204 200 192 184 178 172 165 157 147 134 120 106 96 90 86 83 79 76 72 68 65 61 57 52 46 36
219 215 216 216 214 212 211 210 213 216 223 229 228 227 228 229 236 241 231 213 210 224 235 230 225 242 246 246 250 248 247 250 248 247 244 233 226 226 226 224 218 216 215 214 212 214 214 210 208 208 205 200 194 196 202 201 199 200 203 199 195 192 186 179 173 169 164 160 154 143 132 117 105 97 91 87 83 78 72 66 60 54 49 44 39 34
218 211 212 215 213 213 212 211 213 215 222 230 229 228 229 229 234 242 240 232 232 237 237 230 227 238 253 251 251 249 247 249 249 249 250 244 235 231 231 227 223 222 220 218 217 216 213 206 202 203 205 199 192 200 205 202 197 197 200 197 191 188 185 180 175 172 169 170 168 161 151 135 119 108 99 91 83 75 67 59 51 45 40 35 31 28
219 213 210 211 211 212 213 213 214 216 223 230 231 232 232 232 239 245 248 254 250 236 219 221 224 231 252 249 250 250 245 248 252 253 256 254 248 240 235 230 227 227 227 225 226 225 222 215 205 198 201 202 201 206 208 203 199 199 200 197 193 190 188 184 180 178 178 183 187 185 178 161 142 126 110 98 88 78 65 52 42 35 30 26 24 22
222 219 213 212 213 214 214 215 216 217 223 229 232 234 234 239 245 248 259 256 240 224 216 224 223 219 246 248 245 243 241 248 256 258 261 260 257 251 243 237 232 230 231 230 228 228 226 221 214 207 204 204 205 208 210 208 205 203 202 201 198 196 193 192 187 185 189 197 202 204 201 188 169 154 134 119 107 89 64 41 31 25 21 18 16 14
224 221 216 216 216 216 216 216 218 219 224 229 231 233 236 244 248 250 254 239 224 219 233 237 231 223 238 250 246 246 252 259 263 263 263 261 261 257 249 242 236 234 233 231 229 227 225 220 218 216 212 208 207 209 211 212 210 208 208 207 205 203 202 200 195 194 198 204 210 213 210 202 191 185 174 157 140 109 52 24 19 15 12 10 9 8
225 217 214 218 219 217 214 215 219 221 224 228 230 233 236 242 246 245 227 216 202 227 243 246 237 223 224 247 252 259 268 271 268 265 265 263 261 259 254 246 237 236 235 232 230 227 224 221 218 216 215 213 213 214 215 216 216 216 215 213 211 211 210 209 205 203 205 208 214 216 213 209 210 211 210 209 206 236 332 353 0 1 0 360 1 2
231 224 216 215 220 218 214 214 217 220 223 226 226 228 228 219 226 223 182 196 202 227 245 249 235 221 229 247 255 263 269 272 269 265 262 257 255 256 259 254 239 236 236 234 231 227 226 224 223 224 222 220 221 221 220 221 222 222 222 220 219 218 217 217 215 211 211 214 216 219 218 217 225 235 246 253 259 279 305 327 338 342 344 346 349 352
233 231 223 217 217 216 215 216 216 217 221 223 222 222 217 182 160 225 226 45 226 235 246 244 231 224 237 249 258 262 264 270 266 260 257 258 264 266 266 265 254 241 235 233 230 228 228 228 231 234 232 230 230 229 227 227 228 228 228 228 227 225 224 223 222 219 218 219 220 223 226 229 237 246 258 272 282 289 299 311 319 323 327 331 336 339
227 232 225 218 216 213 214 218 219 219 223 225 226 228 227 217 203 212 211 188 212 233 234 220 213 214 234 251 262 259 259 262 258 258 260 263 267 269 268 264 255 243 231 228 228 227 229 230 235 238 239 238 237 235 235 233 233 233 233 235 235 234 234 231 229 227 226 225 225 229 235 240 246 250 257 267 276 283 289 295 302 308 314 320 324 328
229 238 231 222 220 217 214 217 219 220 224 229 228 229 231 228 227 232 236 230 226 228 195 190 198 226 242 256 259 254 258 253 253 261 261 260 261 262 262 254 245 239 228 222 223 224 225 229 234 237 240 242 241 240 239 238 239 241 241 242 242 242 242 240 238 236 234 231 230 235 241 247 251 254 257 261 265 269 276 284 291 299 306 310 315 321
228 240 240 231 225 223 219 217 219 219 221 224 223 226 230 234 236 236 239 240 234 240 216 198 211 236 247 259 258 253 253 240 239 249 249 248 250 251 250 241 233 232 223 216 216 217 220 226 233 238 240 241 243 244 244 244 246 247 247 247 248 247 246 246 245 243 241 238 239 243 247 251 255 256 255 254 254 258 265 275 283 291 298 302 308 316
233 243 245 238 231 226 223 220 221 223 225 223 224 228 229 230 234 232 227 225 210 237 232 209 217 227 229 249 260 253 247 238 233 235 238 240 240 238 236 231 228 228 222 215 213 213 218 224 231 238 241 242 243 245 246 247 247 245 243 242 245 248 249 251 251 248 246 246 248 250 252 254 255 252 250 248 250 255 262 269 277 284 290 295 304 312
234 243 247 243 238 230 224 222 222 222 224 226 229 232 225 213 218 220 215 197 186 233 252 212 219 221 219 234 255 250 243 241 232 225 230 232 230 230 227 223 224 224 220 213 209 210 215 219 224 231 237 241 242 242 243 244 244 241 239 240 242 245 247 249 250 249 249 249 250 252 253 254 253 250 246 245 249 257 264 269 274 279 284 291 300 307
232 238 245 242 239 231 221 221 222 219 219 224 228 230 226 222 220 217 217 215 201 204 230 218 222 220 222 233 245 241 238 238 229 221 227 227 227 233 229 223 221 217 214 209 204 208 213 216 223 227 231 235 235 235 238 240 242 242 242 244 244 245 246 247 248 248 249 250 252 253 253 252 251 248 246 245 250 257 263 268 272 275 280 287 293 299
232 232 237 236 232 227 221 219 221 220 218 219 221 222 223 225 225 225 227 223 212 198 177 184 225 222 222 229 232 226 226 230 233 241 245 239 237 242 240 234 223 215 213 208 204 210 214 217 224 224 224 226 225 228 234 239 241 241 244 247 247 249 250 250 251 250 250 251 252 252 252 252 251 249 246 246 250 257 262 265 267 271 276 282 287 293
231 228 232 232 228 230 228 226 226 224 223 224 225 225 224 224 224 224 232 227 225 228 208 189 221 220 218 226 229 227 232 236 245 259 259 248 241 240 249 248 226 216 215 211 207 211 215 217 221 219 220 222 222 224 227 230 232 235 241 245 249 253 253 255 256 255 254 252 252 253 251 251 252 251 248 247 249 255 261 260 259 265 271 275 279 284
235 231 233 235 236 238 235 234 232 226 226 230 234 236 233 230 227 222 220 227 225 228 228 223 236 224 220 233 242 240 240 240 245 260 265 255 237 232 242 240 219 214 215 211 209 211 213 216 219 222 225 224 222 224 225 229 234 238 242 244 246 249 253 258 261 259 256 253 255 258 255 253 254 251 250 251 251 253 257 256 254 256 261 266 269 272
234 227 228 234 240 243 241 242 240 228 221 225 230 234 234 233 232 229 235 242 235 226 223 220 238 236 231 240 247 248 246 246 250 258 265 261 246 236 237 228 211 207 207 204 205 208 210 212 214 219 221 219 220 223 226 229 234 236 239 243 245 248 252 259 262 261 259 257 259 261 257 254 255 254 254 256 254 253 256 258 258 252 249 254 259 262
229 220 221 226 236 242 241 242 242 238 233 230 226 226 229 232 233 234 239 242 239 232 227 218 212 231 234 242 250 252 251 253 257 257 258 259 254 244 234 222 208 202 199 197 200 205 209 211 212 214 215 215 219 223 224 227 230 233 237 243 248 252 255 260 262 262 262 261 261 262 259 254 253 254 257 258 257 257 258 260 260 255 247 247 252 257
232 226 222 217 211 221 229 230 233 235 237 239 236 231 231 232 229 232 234 231 229 231 227 220 219 234 242 251 259 261 257 256 259 258 254 255 254 242 226 217 211 205 199 198 201 206 211 213 212 212 212 213 215 217 218 220 224 228 233 241 248 253 255 257 260 260 261 262 263 264 262 257 255 256 257 256 257 259 260 260 261 261 257 250 248 253
235 232 228 225 225 227 233 236 236 236 237 239 240 237 234 230 226 230 231 226 228 231 227 228 236 243 247 253 260 261 255 253 256 255 252 252 248 235 220 216 216 211 203 201 203 207 213 212 208 207 206 205 206 209 212 216 222 226 230 237 243 248 252 253 255 258 262 265 267 268 267 264 264 263 260 258 259 261 262 263 264 264 264 257 246 246
229 230 232 233 234 235 237 240 240 240 240 240 240 239 236 233 231 231 230 229 231 231 230 236 242 244 248 255 258 252 242 241 243 243 243 241 236 225 215 215 217 211 204 203 205 208 211 209 205 201 197 196 198 203 210 216 223 229 232 236 241 248 252 254 256 260 264 267 270 273 272 271 271 268 262 259 261 263 264 267 267 263 264 261 248 242
227 231 234 235 238 242 241 241 242 242 243 244 243 240 236 234 236 236 237 238 236 235 239 245 247 248 252 256 252 239 231 231 227 224 224 224 222 218 214 215 217 213 209 209 209 210 211 208 203 195 191 194 200 206 217 224 231 238 242 245 250 254 255 257 260 264 267 270 271 273 273 273 274 271 266 262 260 260 260 262 260 258 262 265 254 244
228 234 238 237 240 245 244 243 243 243 244 246 246 244 240 239 242 244 246 249 247 245 248 252 253 253 256 254 243 234 235 238 233 225 222 219 216 216 215 217 219 218 216 213 211 213 215 210 203 196 196 205 211 219 229 235 240 246 249 252 254 257 259 261 264 266 269 271 273 275 275 276 277 276 274 271 266 258 255 257 256 257 264 266 252 245
236 236 237 237 239 243 245 244 244 244 245 247 248 249 248 248 251 252 253 256 255 251 250 251 251 254 256 250 241 237 242 246 246 241 236 230 222 218 217 220 222 221 217 211 209 216 219 216 212 208 209 217 224 232 239 243 248 251 254 257 258 260 264 265 266 267 269 271 273 276 278 279 281 281 281 282 273 260 259 268 266 263 265 261 249 243
285 250 239 240 242 242 243 242 241 244 246 247 249 250 250 249 252 254 255 256 257 254 251 247 246 251 253 248 243 243 246 246 244 238 234 233 228 223 221 223 225 221 213 206 206 215 219 220 220 217 219 227 236 245 251 256 260 259 260 263 262 265 267 267 269 270 270 273 273 275 278 279 281 282 282 285 279 268 268 277 267 259 258 252 245 239
307 290 263 264 260 249 245 242 240 241 241 244 247 250 252 251 251 253 255 256 257 256 253 251 250 252 251 245 242 244 244 243 239 234 231 228 225 225 225 226 224 215 206 203 206 213 215 217 219 220 225 234 242 252 257 261 263 263 265 266 266 269 270 270 273 273 273 275 275 276 280 280 281 283 285 289 284 277 276 271 250 244 237 222 218 221
290 286 291 295 279 264 255 244 238 235 228 240 247 250 254 253 251 252 253 253 256 256 256 258 259 256 251 244 242 245 246 243 239 235 231 226 224 225 225 223 217 207 201 203 204 206 209 213 218 222 228 235 243 251 256 261 266 267 269 270 270 273 273 272 274 273 273 275 276 278 282 282 285 287 289 292 285 277 276 268 243 230 215 202 202 213
284 284 297 298 285 280 264 239 228 227 233 243 247 248 252 256 254 251 250 250 253 255 256 259 259 253 248 243 242 246 247 243 236 231 229 228 226 226 224 218 210 203 202 203 201 202 208 214 218 221 227 235 243 251 259 265 268 269 270 272 276 282 284 283 281 278 278 279 279 283 284 284 286 284 284 292 286 274 273 271 243 224 211 203 206 221
288 288 294 288 279 279 254 220 208 231 236 238 242 242 248 253 248 240 237 240 247 250 251 253 252 247 242 237 235 238 239 235 231 230 231 229 225 222 219 213 207 204 204 203 202 205 209 212 217 222 231 240 248 255 261 264 265 265 268 276 290 298 299 297 292 287 286 285 283 285 283 282 283 280 283 294 290 276 275 269 238 219 209 206 213 232
280 280 288 289 278 266 239 212 201 212 215 211 217 227 231 227 222 220 223 230 238 240 239 237 233 230 228 225 223 227 230 230 231 232 232 229 223 216 211 208 208 208 208 205 205 207 209 212 218 227 237 245 250 256 260 262 263 268 277 288 296 302 305 303 298 292 289 286 282 280 278 280 284 284 289 300 294 277 273 254 221 211 208 210 224 238
258 261 277 303 295 259 234 204 181 187 179 177 185 192 192 189 191 198 203 204 208 214 215 210 206 204 203 204 207 212 215 219 225 230 232 227 217 208 204 204 207 208 206 204 205 207 212 218 225 234 243 249 256 261 265 270 274 281 288 292 296 301 305 304 301 296 290 284 279 278 278 282 285 286 294 303 295 272 255 223 201 204 211 218 229 232
258 261 265 290 303 262 226 196 167 178 177 174 174 170 170 170 168 171 174 167 166 173 175 173 177 181 177 175 188 201 209 215 221 226 228 220 207 201 202 203 203 203 200 200 206 211 217 224 230 240 251 258 263 268 272 279 283 286 289 292 298 304 306 305 305 302 294 286 281 281 283 283 280 279 286 294 288 270 238 204 194 204 215 222 225 223
258 269 264 276 302 276 219 193 173 163 165 169 171 168 164 160 157 159 159 154 156 161 160 155 155 156 154 154 168 187 206 225 229 222 215 208 201 200 202 200 197 197 198 203 209 214 221 230 240 249 256 258 260 266 272 276 280 285 291 298 304 307 307 308 308 306 299 291 286 285 285 282 277 273 271 271 270 259 225 200 195 204 213 219 222 223
249 262 258 262 290 284 212 181 166 158 163 171 177 173 165 160 161 169 172 167 169 175 182 184 188 199 197 185 190 197 196 214 225 214 201 197 197 197 197 194 194 198 202 205 209 215 226 238 246 249 250 250 253 260 266 272 280 290 298 304 308 308 309 309 309 306 301 293 286 284 284 280 275 268 259 255 255 238 209 197 198 203 209 217 225 229
238 248 246 253 285 283 206 160 149 152 157 170 180 177 172 173 179 187 185 181 184 190 196 207 222 238 239 211 192 191 185 189 203 205 197 193 191 191 191 192 195 199 202 205 210 219 230 238 240 239 240 244 250 256 265 276 288 297 303 307 309 309 310 309 306 304 298 289 282 280 278 274 268 259 248 242 237 221 205 199 198 199 205 217 227 234
223 236 228 230 281 290 214 149 138 149 151 156 170 177 180 184 190 193 192 191 189 184 187 200 210 214 211 197 184 182 183 184 189 197 200 198 194 194 196 197 200 203 207 212 219 228 235 237 236 236 239 244 251 262 276 288 297 301 304 307 309 310 309 306 303 300 296 285 276 273 272 269 261 251 243 237 228 219 213 208 200 198 205 216 227 239
210 222 221 222 250 301 293 152 143 155 156 148 145 166 187 195 194 190 187 185 181 176 180 192 193 184 185 187 182 179 179 178 177 181 187 188 189 193 198 200 204 208 212 218 226 231 233 234 235 240 248 255 263 273 284 293 298 301 303 306 309 310 308 304 301 298 291 279 271 269 270 267 259 252 250 243 229 216 212 208 202 201 209 218 230 241
224 231 242 240 237 265 311 298 154 149 150 152 139 140 181 187 179 174 172 170 171 171 175 180 177 173 177 183 182 179 180 179 177 178 182 185 187 193 197 200 204 207 209 214 221 226 233 242 251 260 267 272 277 282 288 293 297 301 304 306 308 308 305 301 298 293 284 273 267 267 268 266 261 258 257 251 235 215 204 204 204 206 215 227 240 252
226 229 240 242 235 239 266 195 162 148 134 138 136 131 145 148 148 158 164 162 160 163 168 173 172 171 176 182 185 184 183 184 185 185 187 188 188 189 192 198 205 212 219 225 233 246 261 269 273 275 278 282 286 289 292 295 298 301 302 304 304 302 299 296 295 291 283 274 270 270 270 268 265 261 255 246 236 222 211 209 209 213 223 234 247 259
217 221 227 232 230 228 222 186 163 156 142 137 135 135 142 148 151 159 166 160 154 156 160 162 161 164 172 180 188 193 195 195 196 197 196 194 192 193 204 219 231 242 251 253 257 267 274 277 279 281 283 287 290 292 293 295 297 298 299 300 298 293 289 288 290 291 289 285 281 279 277 274 270 261 248 236 230 226 217 210 211 219 230 237 246 255
203 209 214 218 222 220 213 206 197 170 155 154 157 156 160 174 179 181 186 183 175 174 176 173 167 166 169 172 179 191 199 201 204 207 206 205 209 222 237 245 249 254 261 264 267 272 275 277 281 285 287 289 291 293 295 296 295 295 295 293 289 286 283 280 282 292 297 293 288 285 282 278 271 260 244 232 230 232 228 222 224 233 242 246 250 254
189 197 199 202 205 200 191 192 197 185 163 160 167 171 173 182 184 186 190 187 179 178 185 190 184 176 175 177 178 183 196 206 214 222 228 235 246 257 264 264 262 262 265 269 271 273 276 279 283 285 287 288 288 291 294 294 292 291 289 286 283 281 277 272 275 290 297 292 289 287 281 272 262 253 242 235 238 245 245 244 248 255 255 254 255 257
188 192 189 192 197 198 191 189 195 199 196 191 188 180 173 172 177 184 192 194 192 189 187 190 193 193 196 198 201 216 237 241 240 243 247 251 255 257 259 260 262 263 264 267 271 273 274 278 281 283 286 288 290 291 292 289 287 285 282 277 272 269 268 268 272 280 281 278 277 277 274 265 251 241 237 239 244 250 250 249 251 251 252 254 258 261
184 182 179 185 193 196 190 184 186 195 198 190 183 179 178 181 188 196 200 203 206 208 211 218 223 224 221 220 227 243 252 249 246 245 244 245 246 248 252 257 263 266 267 269 273 277 281 286 289 291 293 293 293 291 288 284 282 277 269 259 253 257 268 274 275 275 274 271 267 264 265 260 243 232 233 239 243 243 240 239 242 245 250 256 260 263
Height
3140 3140 3140 3141 3145 3150 3153 3157 3160 3162 3162 3163 3164 3164 3165 3165 3165 3165 3168 3170 3170 3170 3170 3172 3173 3174 3175 3176 3177 3178 3178 3178 3178 3177 3177 3178 3178 3179 3181 3182 3183 3185 3187 3188 3189 3189 3190 3191 3192 3192 3193 3194 3195 3196 3196 3197 3198 3199 3200 3201 3201 3202 3203 3203 3204 3205 3205 3206 3206 3206 3207 3207 3207 3207 3207 3207 3207 3207 3207 3207 3207 3207 3206 3205 3205 3204
3137 3135 3136 3141 3147 3151 3154 3157 3159 3160 3161 3162 3163 3164 3165 3165 3165 3167 3169 3170 3171 3171 3170 3172 3172 3173 3174 3176 3176 3177 3177 3177 3177 3177 3177 3177 3178 3178 3179 3181 3182 3184 3185 3186 3186 3187 3189 3189 3190 3191 3192 3192 3194 3195 3195 3196 3197 3198 3198 3199 3200 3201 3201 3202 3203 3204 3204 3205 3205 3205 3206 3206 3206 3206 3205 3205 3205 3205 3205 3205 3205 3205 3204 3203 3203 3202
3133 3131 3135 3143 3147 3150 3153 3155 3157 3158 3159 3160 3162 3163 3164 3164 3166 3168 3169 3170 3171 3171 3171 3171 3171 3172 3173 3174 3175 3175 3176 3177 3177 3177 3177 3177 3177 3177 3178 3180 3181 3182 3183 3183 3184 3186 3187 3188 3189 3189 3190 3191 3192 3193 3194 3195 3195 3196 3197 3198 3198 3199 3200 3201 3202 3203 3203 3204 3204 3204 3205 3204 3204 3204 3204 3203 3203 3203 3203 3203 3203 3203 3202 3202 3202 3201
3128 3129 3136 3142 3145 3148 3150 3152 3154 3155 3157 3158 3159 3161 3162 3163 3165 3166 3167 3169 3170 3171 3170 3171 3171 3171 3171 3172 3173 3173 3174 3176 3177 3176 3176 3176 3176 3177 3178 3179 3180 3181 3181 3182 3183 3184 3185 3186 3187 3188 3189 3190 3190 3191 3192 3193 3194 3195 3196 3197 3197 3198 3199 3200 3201 3201 3202 3202 3203 3203 3203 3203 3203 3203 3203 3202 3202 3202 3202 3202 3202 3202 3201 3201 3200 3199
3127 3130 3136 3140 3142 3145 3147 3149 3151 3152 3154 3156 3157 3158 3160 3162 3163 3164 3165 3167 3169 3170 3169 3170 3171 3169 3169 3170 3169 3171 3173 3173 3174 3175 3174 3174 3175 3176 3176 3177 3178 3179 3180 3181 3182 3183 3183 3184 3185 3187 3188 3188 3189 3190 3191 3192 3193 3194 3195 3195 3196 3197 3197 3198 3199 3200 3200 3201 3201 3201 3202 3202 3202 3202 3202 3202 3202 3201 3201 3201 3201 3201 3200 3200 3199 3198
3127 3131 3135 3137 3140 3142 3145 3147 3148 3150 3152 3154 3155 3156 3159 3161 3162 3163 3164 3165 3167 3168 3167 3169 3171 3167 3166 3167 3166 3169 3170 3169 3171 3172 3172 3173 3173 3174 3174 3174 3176 3177 3178 3179 3180 3181 3182 3183 3184 3185 3186 3187 3188 3189 3190 3191 3192 3193 3193 3194 3195 3196 3196 3197 3198 3199 3199 3200 3200 3200 3201 3201 3201 3201 3201 3201 3201 3201 3201 3200 3200 3200 3200 3199 3199 3198
3125 3130 3133 3135 3137 3140 3142 3144 3146 3149 3151 3151 3152 3155 3158 3160 3161 3162 3162 3163 3164 3164 3165 3168 3168 3165 3163 3163 3163 3166 3167 3167 3169 3169 3169 3171 3171 3171 3171 3173 3174 3175 3176 3177 3178 3179 3179 3181 3182 3183 3184 3185 3187 3188 3189 3190 3190 3191 3192 3193 3194 3195 3195 3196 3197 3198 3198 3199 3200 3200 3200 3200 3201 3201 3201 3201 3201 3201 3200 3200 3200 3200 3199 3199 3198 3197
3122 3127 3130 3132 3135 3136 3138 3140 3144 3147 3148 3148 3151 3154 3157 3158 3159 3160 3160 3161 3161 3162 3164 3165 3166 3165 3162 3160 3161 3164 3164 3165 3165 3165 3166 3167 3168 3168 3169 3170 3172 3173 3174 3175 3176 3177 3177 3178 3180 3181 3183 3185 3186 3187 3188 3188 3189 3190 3191 3192 3193 3194 3195 3195 3196 3197 3198 3198 3199 3199 3200 3200 3200 3201 3201 3201 3201 3200 3200 3200 3200 3199 3199 3198 3198 3197
3121 3125 3127 3129 3131 3132 3134 3138 3142 3145 3146 3147 3151 3154 3155 3157 3157 3158 3158 3159 3159 3160 3161 3161 3165 3166 3160 3156 3160 3161 3161 3162 3161 3161 3162 3162 3164 3166 3166 3167 3169 3171 3172 3173 3174 3175 3176 3177 3179 3180 3182 3183 3185 3186 3187 3187 3188 3189 3190 3191 3192 3193 3194 3194 3195 3196 3197 3198 3198 3199 3199 3200 3200 3200 3200 3200 3200 3200 3200 3200 3199 3199 3198 3198 3198 3197
3121 3124 3127 3129 3129 3130 3134 3139 3141 3143 3145 3147 3150 3152 3154 3155 3155 3156 3157 3157 3158 3158 3158 3159 3162 3163 3157 3153 3157 3158 3158 3158 3157 3158 3159 3159 3161 3163 3164 3165 3166 3168 3170 3171 3172 3174 3175 3177 3178 3179 3180 3182 3183 3184 3185 3186 3187 3188 3189 3190 3191 3192 3193 3193 3194 3195 3196 3197 3198 3198 3199 3199 3200 3200 3200 3200 3200 3200 3200 3199 3199 3198 3198 3198 3197 3197
3121 3123 3125 3126 3127 3130 3135 3138 3139 3142 3144 3146 3148 3150 3152 3153 3153 3155 3155 3156 3157 3156 3155 3156 3157 3159 3155 3150 3152 3153 3152 3153 3154 3155 3157 3157 3158 3159 3161 3163 3164 3165 3167 3168 3170 3172 3174 3175 3176 3177 3178 3180 3181 3182 3183 3184 3185 3186 3187 3188 3189 3190 3191 3192 3193 3194 3195 3196 3197 3198 3198 3199 3199 3199 3199 3200 3200 3200 3199 3199 3199 3198 3198 3198 3197 3196
3119 3120 3122 3123 3125 3129 3133 3135 3137 3140 3142 3143 3146 3147 3149 3150 3151 3152 3153 3154 3156 3155 3153 3153 3155 3157 3152 3146 3148 3149 3149 3150 3152 3153 3154 3155 3155 3156 3157 3160 3162 3163 3164 3166 3168 3169 3172 3173 3173 3174 3176 3177 3178 3179 3181 3182 3183 3184 3185 3187 3188 3189 3190 3191 3192 3192 3194 3195 3196 3197 3197 3198 3198 3198 3199 3199 3199 3199 3199 3198 3198 3198 3198 3197 3196 3195
3115 3116 3119 3121 3123 3126 3129 3131 3134 3137 3138 3140 3142 3144 3146 3148 3149 3150 3151 3152 3152 3151 3151 3151 3153 3153 3147 3143 3146 3147 3147 3148 3149 3150 3151 3152 3152 3153 3156 3158 3160 3162 3163 3164 3165 3167 3169 3170 3171 3172 3173 3175 3176 3177 3179 3180 3182 3183 3184 3185 3186 3187 3188 3189 3190 3191 3192 3193 3195 3196 3197 3197 3197 3198 3198 3198 3198 3198 3197 3197 3197 3197 3196 3195 3195 3193
3112 3114 3116 3118 3120 3122 3125 3126 3128 3131 3133 3135 3138 3140 3142 3145 3147 3149 3150 3151 3150 3148 3147 3148 3150 3149 3143 3141 3144 3145 3145 3146 3147 3147 3148 3149 3151 3152 3154 3157 3159 3160 3161 3163 3164 3165 3166 3167 3169 3170 3171 3173 3174 3176 3177 3179 3180 3181 3182 3183 3184 3186 3187 3188 3188 3189 3191 3192 3193 3195 3195 3196 3196 3196 3197 3197 3196 3196 3196 3195 3195 3195 3195 3194 3193 3192
3109 3109 3110 3113 3115 3117 3120 3122 3125 3129 3132 3133 3136 3138 3138 3139 3142 3144 3145 3146 3145 3145 3144 3146 3147 3144 3140 3140 3142 3143 3143 3144 3144 3144 3146 3148 3149 3150 3152 3154 3156 3158 3159 3161 3161 3162 3164 3165 3167 3168 3169 3171 3172 3174 3175 3177 3178 3179 3180 3182 3183 3184 3185 3186 3187 3188 3189 3191 3192 3193 3194 3194 3195 3195 3195 3195 3195 3194 3194 3194 3194 3193 3193 3192 3191 3190
3107 3105 3106 3110 3112 3114 3117 3120 3124 3128 3130 3131 3134 3134 3133 3134 3138 3140 3140 3140 3141 3141 3141 3142 3141 3138 3137 3138 3140 3141 3141 3142 3142 3142 3143 3145 3146 3147 3149 3151 3153 3155 3157 3158 3159 3160 3161 3163 3164 3165 3167 3169 3171 3172 3173 3175 3176 3177 3179 3180 3181 3183 3183 3185 3186 3187 3188 3189 3190 3191 3192 3192 3192 3192 3193 3193 3192 3192 3192 3192 3192 3192 3191 3190 3189 3189
3104 3102 3105 3110 3111 3112 3116 3119 3122 3124 3125 3127 3128 3128 3129 3134 3137 3138 3138 3138 3139 3139 3138 3137 3136 3136 3137 3137 3137 3139 3139 3139 3140 3140 3141 3142 3143 3144 3146 3148 3150 3152 3154 3155 3156 3158 3159 3161 3162 3163 3165 3167 3168 3170 3171 3173 3174 3176 3177 3178 3179 3180 3181 3183 3184 3185 3187 3188 3188 3189 3190 3190 3190 3190 3190 3190 3190 3190 3190 3190 3190 3189 3189 3188 3188 3187
3102 3102 3103 3107 3108 3110 3114 3118 3120 3121 3122 3123 3123 3124 3129 3134 3135 3135 3135 3136 3138 3137 3134 3133 3133 3134 3135 3135 3135 3136 3137 3137 3137 3137 3138 3139 3140 3141 3143 3145 3147 3149 3151 3153 3154 3156 3157 3158 3159 3160 3162 3164 3166 3168 3169 3171 3173 3174 3175 3176 3177 3178 3179 3181 3182 3184 3185 3186 3187 3187 3187 3187 3187 3187 3187 3187 3187 3187 3187 3187 3187 3187 3187 3186 3186 3186
3101 3101 3101 3104 3106 3108 3112 3115 3115 3116 3118 3120 3121 3124 3128 3129 3129 3130 3132 3133 3135 3136 3132 3130 3131 3131 3132 3132 3133 3134 3134 3134 3135 3135 3136 3137 3138 3138 3140 3142 3144 3146 3149 3150 3152 3154 3154 3155 3156 3158 3160 3162 3164 3166 3167 3169 3170 3171 3172 3174 3175 3176 3177 3179 3180 3181 3183 3183 3184 3185 3185 3185 3185 3185 3184 3184 3185 3185 3185 3185 3185 3185 3185 3184 3184 3184
3099 3099 3098 3100 3104 3106 3108 3108 3107 3109 3113 3116 3119 3121 3123 3124 3125 3126 3127 3127 3129 3131 3130 3129 3129 3127 3127 3129 3131 3131 3132 3133 3134 3134 3134 3135 3136 3137 3138 3139 3141 3143 3145 3147 3149 3151 3152 3153 3154 3156 3158 3160 3162 3164 3165 3166 3167 3169 3170 3171 3172 3174 3175 3176 3177 3179 3180 3181 3182 3182 3182 3182 3181 3181 3181 3182 3182 3183 3183 3183 3183 3183 3183 3182 3182 3182
3096 3096 3095 3098 3101 3101 3100 3099 3100 3104 3108 3110 3113 3115 3117 3120 3122 3122 3123 3122 3123 3125 3126 3126 3125 3123 3123 3126 3128 3129 3130 3131 3132 3132 3133 3133 3134 3135 3136 3137 3138 3141 3142 3145 3148 3149 3150 3151 3152 3154 3156 3158 3160 3162 3163 3164 3165 3166 3167 3168 3170 3171 3172 3173 3174 3176 3177 3178 3179 3179 3178 3177 3177 3178 3178 3179 3179 3180 3181 3181 3181 3181 3180 3180 3180 3179
3092 3093 3092 3094 3096 3095 3095 3097 3100 3102 3105 3107 3109 3110 3113 3116 3118 3119 3119 3119 3120 3121 3121 3121 3120 3118 3120 3124 3125 3127 3128 3129 3130 3130 3131 3132 3133 3133 3134 3135 3137 3139 3141 3143 3146 3147 3148 3149 3150 3152 3154 3156 3157 3159 3160 3161 3162 3163 3164 3166 3167 3168 3169 3170 3171 3173 3174 3174 3174 3174 3173 3173 3174 3175 3175 3175 3176 3175 3176 3177 3177 3178 3178 3177 3177 3177
3089 3090 3089 3090 3091 3092 3094 3097 3099 3100 3103 3106 3106 3107 3110 3112 3113 3114 3113 3115 3118 3118 3118 3118 3116 3115 3118 3121 3123 3125 3126 3126 3127 3128 3129 3130 3131 3131 3132 3133 3135 3137 3139 3142 3144 3145 3146 3147 3148 3150 3151 3153 3155 3156 3158 3159 3160 3161 3162 3163 3164 3165 3166 3168 3169 3170 3170 3170 3170 3169 3169 3171 3171 3172 3171 3171 3171 3170 3169 3170 3172 3173 3174 3174 3173 3173
3085 3085 3085 3086 3087 3089 3092 3095 3096 3097 3099 3100 3100 3103 3105 3105 3107 3108 3110 3113 3114 3114 3115 3116 3114 3113 3116 3119 3121 3122 3123 3124 3125 3126 3127 3128 3129 3130 3130 3131 3133 3135 3137 3140 3141 3142 3144 3145 3146 3147 3148 3150 3152 3153 3155 3156 3157 3158 3159 3160 3161 3162 3164 3165 3166 3166 3166 3166 3165 3165 3167 3168 3168 3167 3167 3166 3165 3164 3164 3164 3166 3167 3168 3169 3169 3169
3080 3079 3081 3083 3085 3086 3088 3089 3090 3091 3092 3093 3094 3097 3099 3101 3104 3106 3108 3111 3110 3109 3111 3111 3109 3110 3113 3116 3117 3118 3119 3120 3122 3123 3125 3126 3127 3128 3128 3129 3131 3133 3135 3137 3138 3140 3141 3142 3143 3144 3146 3148 3149 3151 3152 3153 3154 3155 3156 3158 3159 3160 3162 3163 3163 3162 3162 3161 3162 3163 3164 3165 3164 3163 3162 3162 3161 3160 3160 3161 3161 3161 3163 3164 3164 3165
3074 3074 3076 3078 3080 3081 3081 3081 3081 3084 3087 3088 3090 3093 3095 3097 3099 3101 3104 3106 3105 3105 3107 3105 3105 3108 3111 3113 3115 3115 3116 3117 3119 3120 3122 3123 3124 3125 3126 3128 3129 3131 3133 3134 3136 3137 3138 3139 3141 3142 3144 3146 3148 3149 3150 3151 3152 3153 3154 3155 3156 3158 3159 3159 3159 3158 3157 3158 3159 3160 3161 3161 3160 3158 3157 3157 3157 3157 3157 3157 3157 3158 3159 3160 3160 3161
3070 3070 3070 3072 3073 3074 3075 3076 3079 3082 3084 3085 3086 3089 3091 3094 3095 3098 3100 3100 3101 3103 3102 3101 3103 3106 3108 3110 3112 3113 3113 3114 3116 3117 3118 3120 3122 3123 3124 3126 3128 3129 3130 3132 3133 3135 3136 3137 3139 3141 3143 3144 3146 3147 3148 3149 3150 3151 3152 3153 3154 3155 3155 3155 3155 3153 3153 3154 3155 3157 3157 3157 3156 3154 3153 3153 3154 3154 3154 3153 3153 3154 3156 3156 3155 3157
3067 3067 3068 3069 3069 3069 3071 3074 3078 3080 3081 3083 3084 3086 3088 3090 3092 3094 3094 3096 3099 3100 3097 3098 3102 3103 3104 3107 3110 3111 3111 3112 3113 3115 3116 3117 3119 3120 3122 3124 3125 3127 3128 3130 3131 3132 3134 3135 3137 3139 3141 3142 3144 3145 3146 3147 3148 3149 3150 3151 3151 3152 3152 3152 3151 3150 3150 3151 3151 3152 3152 3152 3152 3151 3149 3149 3150 3151 3150 3150 3150 3151 3152 3151 3152 3155
3064 3065 3066 3067 3067 3067 3069 3072 3074 3076 3078 3080 3081 3083 3085 3087 3088 3090 3091 3093 3095 3095 3094 3097 3099 3099 3101 3104 3107 3108 3109 3110 3111 3112 3114 3115 3117 3118 3120 3121 3123 3124 3126 3127 3128 3130 3132 3134 3136 3138 3139 3141 3142 3143 3144 3145 3146 3147 3147 3148 3148 3148 3148 3148 3147 3147 3147 3146 3147 3148 3148 3148 3148 3147 3145 3145 3145 3146 3146 3146 3146 3147 3148 3149 3150 3153
3062 3063 3064 3066 3065 3064 3066 3069 3071 3072 3074 3076 3077 3079 3081 3083 3084 3086 3088 3090 3090 3090 3091 3095 3096 3095 3098 3101 3104 3106 3107 3108 3109 3110 3112 3113 3114 3116 3117 3119 3120 3122 3123 3124 3126 3129 3130 3132 3134 3136 3137 3139 3140 3141 3143 3143 3144 3145 3145 3146 3145 3145 3144 3144 3144 3143 3143 3142 3142 3143 3143 3143 3143 3142 3140 3138 3137 3138 3140 3140 3142 3144 3146 3147 3147 3149
3060 3060 3062 3063 3063 3061 3062 3066 3067 3069 3070 3071 3073 3075 3077 3079 3081 3082 3084 3086 3087 3087 3089 3091 3091 3091 3094 3098 3101 3103 3104 3105 3106 3108 3109 3111 3112 3113 3114 3116 3117 3118 3120 3122 3124 3127 3128 3131 3132 3134 3135 3137 3138 3140 3141 3141 3142 3142 3143 3142 3142 3141 3141 3141 3140 3139 3139 3138 3138 3137 3137 3138 3138 3136 3135 3133 3129 3129 3133 3137 3140 3141 3142 3142 3143 3144
3059 3059 3060 3062 3060 3057 3059 3062 3064 3065 3067 3067 3066 3069 3072 3074 3076 3077 3079 3081 3083 3084 3086 3087 3086 3087 3091 3095 3097 3099 3101 3102 3103 3105 3107 3108 3109 3110 3112 3113 3114 3116 3118 3121 3123 3125 3127 3129 3130 3132 3134 3135 3137 3138 3139 3139 3140 3140 3140 3139 3139 3139 3138 3137 3136 3135 3135 3134 3134 3133 3132 3132 3132 3130 3130 3129 3124 3124 3130 3134 3135 3135 3135 3136 3138 3140
3058 3058 3059 3060 3058 3055 3056 3059 3060 3063 3063 3060 3060 3064 3067 3069 3071 3073 3074 3077 3079 3081 3081 3081 3082 3085 3088 3091 3092 3094 3097 3098 3100 3102 3103 3104 3106 3107 3108 3110 3112 3115 3118 3120 3121 3123 3125 3127 3129 3131 3132 3133 3135 3135 3136 3136 3136 3136 3137 3136 3136 3135 3134 3133 3133 3132 3132 3131 3130 3128 3127 3127 3126 3124 3125 3123 3118 3120 3127 3129 3128 3129 3130 3130 3133 3136
3056 3057 3058 3058 3056 3053 3053 3055 3057 3058 3057 3055 3058 3061 3063 3065 3067 3069 3070 3072 3075 3076 3077 3078 3079 3082 3084 3086 3088 3091 3093 3095 3096 3098 3099 3100 3102 3103 3105 3108 3111 3114 3116 3118 3119 3121 3123 3125 3127 3128 3130 3131 3132 3132 3133 3133 3133 3133 3133 3132 3132 3132 3131 3130 3129 3128 3128 3127 3126 3125 3123 3123 3122 3120 3119 3116 3112 3115 3121 3123 3124 3126 3126 3127 3130 3133
3055 3055 3056 3055 3054 3051 3050 3052 3054 3054 3052 3053 3056 3057 3059 3061 3064 3065 3067 3068 3070 3072 3073 3074 3076 3078 3080 3083 3085 3088 3089 3091 3093 3094 3095 3097 3099 3101 3103 3106 3109 3112 3113 3115 3117 3119 3120 3122 3124 3125 3127 3128 3128 3129 3129 3130 3130 3130 3129 3129 3129 3129 3128 3127 3126 3125 3124 3124 3123 3121 3119 3118 3117 3115 3112 3110 3109 3113 3117 3118 3121 3123 3123 3124 3127 3130
3054 3054 3054 3053 3052 3050 3049 3049 3050 3050 3049 3051 3052 3053 3055 3057 3059 3061 3062 3063 3066 3068 3069 3070 3072 3075 3078 3080 3082 3084 3085 3087 3089 3091 3092 3094 3096 3100 3103 3106 3108 3110 3112 3113 3115 3116 3118 3119 3121 3122 3124 3125 3125 3126 3127 3127 3127 3127 3126 3126 3126 3126 3125 3124 3123 3122 3121 3120 3119 3118 3115 3113 3111 3109 3108 3108 3110 3113 3115 3115 3118 3121 3121 3123 3125 3127
3053 3053 3053 3052 3050 3049 3047 3046 3046 3047 3048 3048 3048 3049 3051 3052 3054 3056 3057 3059 3062 3064 3065 3068 3070 3072 3074 3076 3078 3080 3082 3084 3086 3088 3090 3092 3095 3098 3101 3104 3107 3109 3110 3111 3113 3114 3115 3117 3118 3119 3121 3121 3122 3123 3123 3124 3124 3124 3124 3123 3123 3123 3122 3121 3120 3118 3117 3116 3115 3113 3111 3109 3107 3105 3105 3107 3110 3112 3113 3114 3116 3118 3119 3121 3123 3124
3053 3052 3052 3051 3049 3047 3046 3045 3045 3046 3046 3045 3046 3047 3048 3050 3051 3053 3055 3057 3059 3061 3064 3066 3068 3070 3072 3073 3075 3077 3079 3081 3082 3085 3087 3090 3093 3096 3099 3101 3104 3106 3108 3109 3110 3112 3113 3114 3115 3117 3118 3118 3119 3119 3120 3120 3121 3121 3121 3121 3120 3120 3119 3118 3116 3115 3113 3112 3111 3109 3108 3106 3105 3103 3103 3104 3107 3109 3111 3112 3114 3115 3117 3119 3121 3122
3051 3051 3050 3050 3048 3046 3044 3042 3041 3042 3043 3043 3045 3046 3047 3048 3050 3052 3055 3057 3058 3060 3063 3065 3067 3069 3070 3071 3073 3076 3077 3079 3080 3083 3085 3088 3091 3094 3096 3099 3101 3103 3105 3107 3109 3110 3111 3112 3113 3114 3115 3115 3115 3116 3116 3117 3117 3117 3117 3117 3117 3116 3115 3114 3113 3111 3110 3108 3107 3106 3105 3104 3103 3102 3102 3103 3105 3107 3108 3110 3111 3113 3116 3117 3119 3120
3049 3048 3048 3048 3047 3045 3042 3040 3039 3039 3040 3042 3043 3044 3045 3047 3049 3051 3053 3055 3057 3059 3062 3063 3065 3068 3068 3069 3071 3074 3077 3078 3080 3081 3083 3086 3089 3092 3094 3097 3099 3102 3104 3105 3106 3108 3109 3110 3111 3111 3112 3112 3112 3112 3113 3113 3114 3114 3114 3114 3113 3113 3111 3110 3109 3108 3106 3105 3104 3103 3102 3102 3101 3100 3101 3103 3104 3105 3106 3108 3109 3111 3114 3115 3117 3119
3047 3046 3045 3046 3046 3044 3040 3038 3037 3037 3038 3040 3042 3043 3044 3046 3048 3049 3051 3054 3056 3058 3060 3061 3063 3065 3067 3068 3069 3072 3075 3077 3080 3082 3083 3086 3089 3091 3094 3096 3098 3100 3101 3103 3104 3105 3106 3106 3107 3108 3108 3109 3109 3109 3110 3110 3111 3111 3110 3110 3109 3108 3107 3106 3105 3104 3103 3101 3100 3100 3100 3099 3099 3098 3099 3101 3102 3102 3104 3106 3107 3109 3111 3113 3115 3116
3044 3044 3043 3045 3047 3045 3040 3036 3035 3036 3038 3039 3041 3042 3043 3044 3045 3047 3050 3053 3055 3056 3058 3060 3061 3062 3065 3067 3068 3069 3072 3075 3078 3081 3084 3086 3088 3090 3092 3094 3095 3097 3098 3099 3100 3101 3102 3103 3103 3104 3105 3106 3106 3107 3107 3108 3108 3108 3107 3106 3106 3105 3103 3102 3101 3100 3099 3098 3097 3097 3097 3096 3096 3096 3097 3098 3099 3099 3100 3102 3104 3106 3108 3110 3111 3113
3041 3042 3042 3045 3047 3044 3039 3035 3035 3036 3037 3039 3040 3041 3042 3043 3044 3047 3049 3051 3053 3055 3056 3057 3059 3060 3062 3065 3066 3067 3070 3073 3076 3078 3082 3085 3087 3089 3090 3091 3092 3094 3095 3096 3098 3099 3100 3100 3101 3102 3103 3103 3104 3104 3105 3105 3105 3104 3104 3103 3102 3101 3100 3099 3098 3097 3096 3095 3094 3094 3094 3093 3093 3092 3092 3093 3094 3096 3098 3100 3101 3103 3104 3106 3107 3109
3037 3039 3041 3044 3046 3044 3039 3036 3035 3036 3038 3039 3040 3041 3042 3044 3045 3046 3048 3049 3051 3054 3055 3055 3057 3058 3060 3063 3064 3066 3069 3072 3073 3076 3079 3082 3084 3086 3088 3089 3091 3093 3094 3095 3096 3097 3098 3099 3099 3100 3101 3101 3101 3101 3101 3101 3101 3101 3100 3099 3098 3097 3096 3095 3094 3093 3093 3092 3091 3091 3091 3090 3089 3089 3089 3090 3092 3094 3097 3099 3100 3100 3101 3103 3104 3105
3033 3036 3039 3042 3044 3044 3041 3038 3037 3038 3039 3040 3041 3042 3043 3045 3046 3047 3048 3049 3050 3052 3054 3055 3056 3057 3060 3062 3063 3065 3068 3071 3073 3075 3078 3080 3082 3085 3087 3089 3090 3091 3092 3093 3095 3095 3096 3097 3097 3097 3097 3097 3097 3097 3097 3097 3097 3097 3096 3096 3095 3094 3093 3092 3091 3090 3089 3089 3088 3088 3088 3087 3087 3087 3087 3088 3090 3092 3095 3097 3097 3098 3100 3100 3101 3102
3030 3034 3037 3038 3040 3042 3043 3040 3039 3039 3040 3040 3042 3044 3045 3047 3049 3049 3050 3050 3050 3052 3054 3055 3056 3057 3060 3062 3064 3066 3068 3070 3073 3075 3077 3079 3082 3084 3086 3088 3089 3090 3091 3092 3093 3093 3094 3094 3094 3094 3093 3094 3094 3093 3093 3093 3093 3093 3092 3092 3091 3091 3090 3089 3088 3087 3087 3086 3086 3085 3085 3085 3085 3086 3086 3087 3088 3090 3092 3094 3095 3096 3097 3098 3098 3099
3028 3030 3032 3033 3035 3038 3041 3042 3040 3040 3040 3042 3044 3045 3046 3049 3052 3053 3053 3053 3053 3054 3056 3057 3058 3059 3061 3063 3066 3068 3069 3071 3073 3075 3077 3079 3081 3083 3084 3086 3087 3088 3089 3090 3090 3090 3090 3090 3090 3090 3089 3089 3089 3089 3089 3089 3089 3089 3089 3088 3088 3087 3086 3085 3084 3084 3084 3083 3083 3083 3083 3083 3083 3084 3084 3085 3086 3088 3090 3092 3093 3094 3095 3095 3095 3095
3024 3026 3027 3028 3030 3033 3038 3042 3043 3042 3042 3043 3046 3047 3048 3050 3052 3053 3053 3054 3055 3056 3057 3059 3060 3061 3062 3064 3066 3068 3070 3072 3073 3075 3077 3078 3080 3081 3082 3083 3084 3084 3085 3086 3087 3087 3087 3087 3087 3086 3086 3086 3086 3086 3086 3086 3085 3085 3085 3084 3083 3083 3082 3082 3081 3081 3081 3081 3081 3081 3081 3081 3081 3082 3083 3083 3085 3087 3088 3090 3091 3091 3092 3092 3092 3092
3021 3022 3024 3025 3027 3029 3032 3036 3040 3043 3045 3045 3047 3048 3049 3050 3051 3052 3054 3056 3057 3058 3059 3060 3061 3062 3062 3063 3065 3067 3070 3072 3073 3075 3076 3078 3079 3080 3080 3081 3081 3081 3082 3083 3084 3084 3084 3084 3083 3083 3083 3083 3082 3082 3082 3082 3081 3081 3081 3080 3080 3079 3079 3079 3078 3078 3078 3078 3079 3079 3078 3078 3079 3080 3081 3082 3084 3085 3087 3087 3088 3088 3089 3089 3089 3089
3019 3021 3023 3024 3025 3026 3027 3030 3033 3038 3042 3045 3047 3048 3049 3050 3052 3053 3055 3057 3058 3059 3059 3060 3061 3062 3062 3063 3066 3069 3071 3073 3073 3074 3075 3076 3077 3078 3078 3079 3079 3079 3080 3081 3081 3081 3081 3080 3080 3080 3080 3079 3079 3078 3078 3078 3077 3078 3077 3077 3076 3076 3076 3075 3075 3075 3075 3075 3075 3076 3076 3076 3077 3078 3079 3080 3082 3083 3084 3084 3085 3085 3086 3086 3086 3086
3017 3018 3021 3023 3025 3026 3028 3030 3032 3034 3037 3041 3045 3047 3049 3050 3052 3053 3054 3055 3056 3057 3059 3060 3061 3062 3063 3064 3067 3070 3071 3072 3072 3073 3073 3074 3075 3075 3076 3076 3076 3077 3077 3077 3077 3077 3077 3076 3076 3076 3075 3075 3074 3074 3074 3074 3074 3074 3074 3074 3073 3073 3072 3072 3072 3072 3072 3072 3072 3072 3073 3075 3075 3076 3077 3078 3079 3080 3081 3082 3082 3083 3083 3083 3083 3082